B49 Paus Observatory, Sabadell. Observer J. Camarasa. 0.25-m f/4 Newtonian
reflector + CCD.
C42 Xingming Observatory, Mt. Nanshan. Observer X. Gao. Measurer T. Chen.
0.107-m f/2.8 lens + CCD.
D88 Hiratsuka. Observer Y. Sugiyama. 0.25-m f/5.0 reflector + CCD.
E16 Grove Creek Observatory, Trunkey. Observers P. Camilleri, G. Sostero,
E. Guido. 0.30-m f/5.8 reflector + CCD.
H47 Vicksburg. Observer C. Bell. 0.3-m f/5.9 Schmidt-Cassegrain + CCD.
H55 Astronomical Research Observatory, Charleston. Observer R. Holmes.
Measurer H. Sharafi. 0.81-m f/4.0 astrograph + CCD.
J20 Aravaca. Observer K. Wierzchos. 0.20-m Schmidt-Cassegrain + CCD.
Long. = 356.21926, rho cos phi' = 0.762019, rho sin phi' = +0.645541.
J29 Observatorio Nira, Tias. Observer R. Trujillo. 0.24-m f/4.8 Cassegrain
+ CCD.
J38 Observatorio La Vara, Valdes. Observer F. Garcia. 0.25-m f/8.1 reflector
+ CCD.
J40 Malaga. Observer J. M. Ruiz M. 0.20-m f/5 Newtonian reflector + CCD.
J45 Observatorio Montana Cabreja, Vega de San Mateo. Observer F. A. Rodriguez
R. 0.20-m f/4 reflector + CCD.
J47 Observatorio Nazaret. Observer G. Muler. 0.20-m Schmidt-Cassegrain + CCD.
J51 Observatorio Atlante, Tenerife. Observer J. A. Henriquez. 0.2-m f/9
Cassegrain + CCD.
J59 Observatorio Linceo, Santander. Observer J. Temprano. 0.25-m f/3.3
Schmidt-Cassegrain + CCD.
Orbital elements:
P/1896 R2 = 2008 R6 (Giacobini)
Epoch 1896 Nov. 17.0 TT = JDT 2413880.5
T 1896 Oct. 28.53474 TT MPC
q 1.4547575 (2000.0) P Q
n 0.14823171 Peri. 140.50968 +0.90608255 +0.42006459
a 3.5359706 Node 194.89642 -0.42060104 +0.88128415
e 0.5885832 Incl. 11.35127 -0.04592573 +0.21652709
P 6.65
Epoch 2008 Sept. 11.0 TT = JDT 2454720.5
T 2008 Sept. 10.08442 TT MPC
q 1.5263743 (2000.0) P Q
n 0.14800493 Peri. 154.25156 +0.89795450 +0.44008493
a 3.5395817 Node 179.62583 -0.43544009 +0.88903132
e 0.5687699 Incl. 15.30637 -0.06379373 +0.12628767
P 6.66
From 223 observations 1896-2008, mean residual 1".02. Nongravitational
parameters A1 = +0.97 +/- 0.02, A2 = +0.0274 +/- 0.0002.
Ephemeris:
P/1896 R2 = 2008 R6 (Giacobini)
Date TT R. A. (2000) Decl. Delta r Elong. Phase m1 m2
2008 09 11 20 39.88 -01 28.2 0.609 1.526 140.5 24.8 13.8
2008 09 21 20 54.81 -05 24.2 0.645 1.531 135.1 27.6 13.9
2008 10 01 21 12.90 -08 43.1 0.697 1.542 129.5 30.0 14.1
2008 10 11 21 33.38 -11 12.7 0.764 1.560 124.0 32.0 14.3
2008 10 21 21 55.37 -12 50.0 0.845 1.585 118.7 33.4 14.6
2008 10 31 22 18.09 -13 38.3 0.938 1.616 113.6 34.3 14.9
2008 11 10 22 41.02 -13 43.8 1.042 1.652 108.7 34.6 15.3
2008 11 20 23 03.72 -13 14.5 1.158 1.693 103.9 34.5 15.6
2008 11 30 23 25.98 -12 17.9 1.282 1.738 99.2 34.1 15.9
2008 12 10 23 47.72 -11 00.7 1.416 1.787 94.5 33.3 16.3
2008 12 20 00 08.88 -09 29.0 1.556 1.840 89.9 32.3 16.6
2008 12 30 00 29.52 -07 47.5 1.704 1.894 85.2 31.1 16.9
2009 01 09 00 49.70 -06 00.3 1.856 1.951 80.5 29.8 17.2
2009 01 19 01 09.45 -04 10.6 2.012 2.010 75.7 28.3 17.6
2009 01 29 01 28.84 -02 21.1 2.171 2.070 70.9 26.7 17.8
2009 02 08 01 47.94 -00 33.7 2.332 2.132 66.1 25.0 18.1
2009 02 18 02 06.77 +01 09.6 2.492 2.194 61.2 23.3 18.4
2009 02 28 02 25.38 +02 47.7 2.651 2.256 56.3 21.4 18.7
Brian G. Marsden (C) Copyright 2008 MPC M.P.E.C. 2008-R78
Read MPEC 2008-R77
Read MPEC 2008-R79
Our Web policy. Index to the CBAT/MPC/ICQ pages.